Temperature
14 15 15 16 18 20 20 21 20 20 20 19 19 20 21 22 22 21 17 16 16 16 16 16 16 16 15 15 15 15 15 15 16 16 16 16 15 15 15 15 15 15 15 15 15 15 15 15 15
14 14 15 16 19 20 20 21 20 20 19 18 18 18 20 20 18 16 16 16 16 16 16 15 16 15 15 15 15 15 15 15 15 15 15 15 15 15 15 15 15 15 15 15 15 15 15 15 15
14 14 15 18 18 20 21 20 20 19 17 17 18 18 19 19 16 16 16 16 15 15 15 15 15 15 15 15 15 15 15 15 15 15 15 15 15 15 15 15 15 15 15 15 15 15 15 14 14
13 14 15 17 18 19 20 20 18 18 17 17 18 19 17 15 15 15 16 16 15 15 15 15 15 15 15 15 15 15 15 15 15 15 15 15 15 15 15 15 15 15 15 15 15 14 14 14 14
13 15 17 17 18 19 18 18 17 18 18 18 18 19 17 15 15 16 15 15 14 14 14 15 15 15 15 15 15 15 15 15 15 15 15 15 15 15 15 14 14 14 14 14 14 14 14 14 14
13 15 17 17 18 18 18 16 16 18 18 17 17 18 17 14 15 15 14 14 14 14 14 14 14 14 14 14 14 14 14 14 15 15 15 15 14 14 14 14 14 14 14 14 14 14 14 14 13
14 16 17 18 18 18 17 16 16 18 18 17 16 18 16 14 14 14 14 14 13 14 14 14 14 14 14 14 14 14 14 14 14 14 14 14 14 14 14 14 14 14 14 14 14 14 13 13 13
13 15 16 16 17 17 17 15 15 16 17 15 14 17 16 13 14 13 13 13 13 13 13 14 14 14 14 14 14 14 14 14 14 14 14 14 14 14 14 13 13 13 13 13 13 13 13 13 13
12 14 15 16 16 16 15 15 14 13 14 13 13 13 13 13 13 13 13 13 13 13 13 13 13 13 13 13 13 13 13 14 13 13 13 13 13 13 13 13 13 13 13 13 13 13 13 13 13
12 14 15 15 15 15 14 14 13 13 14 13 12 12 13 12 13 12 12 12 13 13 13 13 13 13 13 13 13 13 13 13 13 13 13 13 13 13 13 13 13 13 13 13 13 13 13 12 12
12 13 14 13 13 13 13 12 12 14 14 14 13 12 12 12 12 12 12 12 12 12 12 13 13 13 13 13 13 13 13 13 13 13 13 13 13 13 13 12 12 12 12 12 12 12 12 12 12
12 12 12 12 11 11 12 12 12 12 13 12 12 12 11 11 11 11 11 11 11 12 12 12 12 12 13 13 12 12 12 12 13 13 13 13 12 12 12 12 12 12 12 12 12 12 12 11 11
11 11 10 10 10 10 10 11 11 11 11 10 10 10 11 11 11 11 11 11 11 11 12 12 12 12 12 12 12 12 12 12 12 12 12 12 12 12 12 12 12 12 12 11 11 11 11 11 11
10 10 10 9 9 9 10 10 10 10 10 10 9 9 9 10 10 10 10 10 11 11 11 11 11 12 12 12 12 12 12 12 12 12 12 12 12 12 12 12 12 11 11 11 11 11 11 11 10
9 9 10 10 9 9 10 10 10 9 9 9 9 9 9 9 9 9 9 10 10 10 11 11 11 11 11 11 11 11 11 11 11 11 11 12 12 12 12 11 11 11 11 11 10 10 10 10 10
9 9 10 10 9 9 10 10 10 8 8 8 8 8 8 8 8 8 9 9 10 10 10 11 11 11 11 11 11 11 11 11 11 11 11 11 11 11 11 11 11 11 11 10 10 10 10 10 10
8 9 9 9 9 9 9 9 9 7 7 8 8 7 7 7 7 8 8 9 9 10 10 10 10 10 11 11 11 11 11 11 11 11 11 11 11 11 11 11 10 10 10 10 10 10 9 9 9
8 9 9 9 9 8 8 8 8 6 7 7 7 7 7 7 6 7 7 8 9 9 10 10 10 10 10 10 10 10 10 10 10 10 10 10 10 10 10 10 10 10 10 10 9 9 9 9 9
8 8 8 8 8 7 7 7 7 7 6 6 6 6 6 6 6 6 7 7 8 9 9 9 9 10 10 10 10 10 10 10 10 10 10 10 10 10 10 10 10 10 9 9 9 9 9 9 9
7 7 7 7 7 7 7 7 7 6 6 6 5 5 5 5 5 5 6 6 7 8 8 9 9 9 9 9 9 9 9 9 9 9 9 9 9 9 9 9 9 9 9 9 9 9 8 8 8
6 7 7 6 6 6 6 6 6 6 5 5 5 5 4 4 4 4 5 6 6 7 7 8 8 8 8 9 8 9 9 9 9 9 9 9 9 9 9 9 9 9 9 9 9 8 8 8 8
6 6 6 6 6 7 7 7 6 6 5 5 4 4 4 4 4 4 4 5 5 6 7 7 7 8 8 8 8 8 8 8 8 8 9 9 9 9 9 9 9 8 8 8 8 8 8 8 7
5 5 5 6 6 6 6 6 6 5 5 5 4 4 3 3 3 3 3 4 5 6 6 6 6 7 7 7 7 7 7 7 8 8 8 8 8 8 8 8 8 8 8 8 8 8 7 7 7
5 5 5 5 6 5 5 6 6 5 4 4 4 3 3 2 2 2 3 3 4 5 5 6 6 6 6 7 7 7 7 7 7 7 8 8 8 8 8 8 8 8 8 7 7 7 7 7 7
5 5 5 5 5 5 5 5 4 3 3 3 3 2 2 2 1 2 2 2 3 4 4 5 5 5 6 6 6 6 6 6 7 7 7 7 7 7 7 7 7 7 7 7 7 7 7 7 7
4 4 5 5 5 5 4 4 3 2 2 1 1 1 1 1 1 1 1 2 2 3 3 4 4 4 5 5 5 5 6 6 6 6 6 6 7 7 7 7 7 7 7 7 6 6 6 6 6
3 3 4 4 4 4 4 3 2 2 1 1 1 0 0 0 0 0 0 1 2 2 3 3 3 4 4 4 4 5 5 5 5 6 6 6 6 6 6 6 6 6 6 6 6 6 6 6 6
3 3 3 3 4 4 4 3 3 1 1 1 0 -0 -1 -1 -0 -0 -0 0 0 1 2 2 3 3 3 4 4 4 4 4 5 5 5 5 5 5 5 5 5 5 6 6 5 6 6 5 6
1 2 2 3 3 4 3 3 2 1 0 0 -0 -1 -1 -1 -1 -1 -1 -1 -0 0 1 1 2 2 2 3 3 3 4 4 4 4 4 5 5 5 5 5 5 5 5 5 5 5 5 5 5
1 1 1 2 2 2 3 2 0 0 -0 -1 -1 -2 -2 -2 -2 -1 -1 -1 -1 -0 0 0 1 1 1 2 2 3 3 3 3 3 3 4 4 4 4 4 4 4 4 4 4 5 5 5 5
Wind_Speed
2 1 1 2 4 6 13 10 6 6 5 4 4 4 5 5 3 1 3 6 9 13 15 17 16 15 14 14 14 14 14 14 14 14 14 14 14 14 14 13 14 14 14 15 15 15 16 16 16
1 1 2 3 7 11 11 10 11 8 3 3 4 4 4 4 0 2 3 7 11 13 14 15 16 15 15 14 14 14 14 14 14 14 14 14 14 13 13 13 14 14 14 15 15 15 15 15 15
1 1 3 4 8 13 11 6 8 7 4 4 4 3 3 1 1 2 4 9 11 12 13 14 16 15 14 15 14 14 14 14 14 14 14 14 13 13 13 14 14 14 14 14 14 15 15 14 14
3 3 3 8 15 14 10 4 4 5 5 5 4 3 2 1 1 2 6 10 12 12 12 14 15 15 14 14 14 14 14 13 13 14 14 14 14 14 14 14 14 13 13 14 14 14 14 14 14
3 4 7 11 17 12 8 5 4 5 5 5 5 4 3 2 2 4 8 11 12 11 11 14 14 14 14 14 14 13 14 14 14 14 14 13 14 14 14 14 14 13 13 13 13 13 13 13 13
5 5 10 16 17 12 9 8 6 7 5 4 5 5 3 3 3 5 9 10 10 10 11 13 13 14 14 13 14 13 13 13 14 14 13 13 13 14 14 13 13 13 13 13 13 12 12 12 13
7 8 13 16 15 13 9 7 8 8 7 5 3 4 4 3 3 5 8 8 9 9 9 11 12 13 13 13 13 13 13 13 13 13 13 13 13 13 13 13 12 12 13 13 13 12 12 12 13
5 6 12 14 15 13 7 6 5 7 6 2 3 4 3 3 4 6 7 7 7 7 8 8 10 11 11 12 13 13 13 13 13 13 13 13 13 13 13 12 12 12 12 12 12 12 12 12 12
5 8 14 15 13 10 6 7 4 3 4 3 2 2 2 5 7 8 7 6 6 6 6 6 7 8 9 10 11 12 12 12 13 12 13 12 10 11 11 11 12 12 12 12 12 12 12 11 11
8 12 16 10 9 7 6 6 4 5 6 5 4 1 1 6 8 9 8 8 7 6 6 5 6 6 7 8 9 9 9 10 9 9 9 8 8 8 9 12 12 12 12 12 11 11 10 8 8
7 12 11 7 5 5 6 5 4 6 6 6 6 4 5 7 8 8 8 8 8 7 6 5 5 6 7 6 6 6 6 7 7 8 8 7 7 7 8 8 10 10 10 9 9 8 6 6 6
9 10 9 7 4 5 6 6 5 7 6 3 3 4 7 8 7 7 8 7 7 6 6 5 4 5 6 6 5 6 6 6 6 6 7 7 6 6 6 6 7 7 7 7 6 5 6 6 6
11 9 7 7 5 4 5 7 7 8 5 3 1 3 6 7 7 5 5 5 5 6 5 4 4 5 5 5 5 5 5 5 6 6 6 6 5 5 6 5 6 6 6 6 6 6 6 6 5
7 8 7 6 7 6 7 7 7 7 4 2 1 3 4 5 5 4 4 4 4 4 4 4 4 4 5 5 5 4 5 5 6 6 6 6 5 5 5 5 5 6 6 6 6 7 6 5 5
6 8 8 7 7 6 5 8 10 6 4 4 3 3 3 4 4 4 4 4 4 4 4 4 4 4 5 5 5 4 5 5 5 5 6 6 6 6 5 5 5 5 6 7 6 7 5 5 5
6 9 9 6 6 6 8 11 5 4 5 6 5 3 3 3 3 3 3 3 3 3 4 4 3 4 4 4 5 4 5 5 4 5 5 6 6 6 6 5 4 6 6 6 6 5 5 4 4
6 9 10 7 6 5 7 7 3 2 4 4 4 4 3 3 2 1 2 2 2 2 3 4 3 3 4 4 4 4 5 4 4 5 5 5 6 6 6 5 5 6 6 5 5 5 5 5 4
8 9 10 9 5 5 7 7 2 1 3 3 3 3 3 2 2 1 1 1 1 2 3 4 4 3 3 3 4 4 4 3 3 4 4 5 6 6 6 5 6 7 5 5 5 6 5 5 5
9 10 11 8 4 6 8 7 4 1 1 2 2 2 2 1 1 1 1 1 2 2 2 3 4 3 3 3 3 3 3 3 3 3 4 5 5 6 6 5 6 6 6 6 7 6 6 4 5
8 10 9 5 4 6 7 6 4 2 2 2 2 2 1 1 1 1 1 2 1 1 2 2 3 3 3 2 3 2 2 2 2 2 3 4 5 5 6 6 5 6 6 7 8 7 5 4 5
8 9 8 6 4 6 6 6 5 3 2 1 1 1 1 1 1 0 1 1 1 1 1 1 2 3 3 3 3 3 3 2 2 2 2 3 4 5 5 6 6 6 6 7 8 8 8 6 5
7 5 6 6 5 5 7 6 5 4 2 2 2 1 1 1 1 0 1 1 1 0 0 0 1 2 2 2 3 5 4 4 3 3 3 3 4 4 5 5 6 6 6 6 8 8 7 7 6
5 4 5 7 6 5 5 5 3 3 2 2 2 1 1 1 0 1 1 1 1 1 1 1 1 1 1 2 3 4 4 3 3 3 4 3 3 4 5 5 5 6 6 6 6 8 8 7 7
3 3 3 4 4 6 6 6 3 1 3 2 1 2 2 2 1 2 2 2 3 3 2 2 2 1 0 1 2 3 4 4 4 4 4 4 3 3 4 5 5 5 5 6 6 6 8 7 7
1 1 2 3 4 4 4 4 1 3 2 1 2 2 2 3 3 3 3 3 3 4 3 2 2 1 1 1 0 1 3 4 5 5 4 4 3 3 4 4 5 5 5 6 6 6 6 7 8
2 3 2 3 3 2 3 4 1 4 4 3 3 3 3 4 4 4 3 3 3 3 3 3 2 1 1 1 1 1 1 2 3 4 4 4 3 4 4 5 5 5 6 6 6 5 6 5 7
1 2 3 2 2 3 2 1 0 4 6 6 6 6 5 4 4 4 4 4 4 3 3 3 2 2 1 1 1 1 1 2 2 3 3 3 3 3 4 5 5 5 6 6 6 5 6 6 6
2 1 2 2 2 3 2 2 1 4 5 6 7 7 6 5 5 5 4 5 4 4 4 3 3 2 2 2 1 1 1 2 2 2 3 3 3 3 4 4 5 5 5 6 6 6 6 7 6
4 1 1 2 3 3 3 1 3 1 2 4 5 6 6 6 6 5 5 5 5 4 4 4 4 3 3 3 2 2 2 2 2 2 3 3 3 4 4 5 5 5 5 6 6 7 7 7 7
5 2 1 2 2 2 3 1 4 3 3 5 6 7 7 6 6 6 5 5 5 5 5 4 4 4 4 3 3 2 2 2 2 3 3 3 3 4 4 4 5 5 5 6 7 7 7 8 8
Wind_Direction
326 302 238 209 210 223 233 223 215 200 197 202 190 207 216 209 206 116 77 145 147 150 151 152 149 147 145 145 145 143 141 138 136 135 134 132 129 126 123 119 116 112 108 106 103 102 103 101 100
280 221 201 207 223 225 229 222 214 212 182 166 186 209 216 217 354 72 124 148 151 149 150 153 147 148 146 144 145 144 143 140 139 137 136 135 132 129 126 122 119 114 109 107 104 103 104 104 102
188 237 208 204 225 230 226 203 218 207 192 193 191 207 227 211 127 123 131 152 151 148 150 147 145 145 145 145 144 145 143 141 140 137 135 134 132 129 128 125 119 114 110 109 108 106 105 105 105
200 186 209 224 228 231 237 202 172 184 188 204 202 184 180 55 58 115 142 154 151 148 149 146 146 144 143 141 145 145 144 141 138 135 133 131 131 128 124 122 120 117 115 113 111 110 107 107 108
204 206 212 227 234 232 229 221 196 199 193 192 202 200 170 101 75 126 149 154 152 149 147 148 147 146 145 143 141 142 143 140 136 135 134 132 130 128 125 123 122 119 118 118 115 113 113 110 110
192 208 222 231 233 229 225 219 217 223 215 203 210 215 167 96 112 135 149 153 150 148 147 147 145 144 145 144 141 138 139 141 139 138 136 134 131 128 127 125 125 122 119 117 117 117 115 112 110
213 212 230 235 236 231 221 214 224 224 220 210 214 210 173 122 124 140 145 146 143 144 145 147 151 149 143 141 139 138 137 138 140 138 135 133 130 130 127 125 124 124 121 120 119 117 114 112 110
226 221 233 234 235 235 218 207 226 231 228 210 208 219 197 164 141 137 135 134 137 141 142 144 151 153 151 147 141 138 137 136 133 134 132 129 128 129 129 129 124 123 123 123 120 118 114 111 110
216 223 231 229 230 232 207 207 213 229 213 188 203 280 4 134 145 141 137 133 137 140 141 145 148 149 152 151 146 141 135 134 134 133 135 141 144 140 137 129 124 122 123 124 122 120 116 114 111
209 228 234 235 237 231 209 217 219 202 212 221 224 255 127 150 156 158 159 157 157 158 153 150 151 150 150 149 151 154 150 146 147 145 149 157 151 144 137 129 125 124 122 122 122 122 124 130 128
215 232 237 236 243 237 221 227 230 221 230 231 227 204 170 167 168 172 172 170 168 166 160 155 152 151 151 147 148 150 148 147 148 150 154 153 150 146 144 144 141 139 137 132 131 135 134 134 130
227 237 239 238 235 231 231 229 234 234 254 298 249 183 165 170 176 181 179 175 170 167 165 153 151 153 153 150 151 154 149 148 148 151 156 156 151 152 151 153 156 156 150 141 142 138 133 130 132
228 235 238 239 228 230 232 234 242 252 269 307 312 178 173 175 176 177 178 173 169 169 164 156 154 154 150 151 152 155 155 154 150 150 155 160 159 157 155 155 157 159 153 150 143 139 135 135 133
229 232 236 240 235 233 231 243 241 258 259 249 216 206 192 186 178 167 168 173 172 171 167 157 152 149 147 151 153 152 155 154 154 153 154 158 159 157 160 159 159 156 156 153 151 145 142 137 133
236 236 239 235 228 224 229 243 238 249 239 227 225 224 210 195 187 185 184 186 184 179 167 157 153 146 151 152 151 149 152 155 155 151 158 159 160 163 161 159 160 156 155 153 149 146 143 133 134
229 228 233 230 228 228 223 239 236 240 227 226 227 226 223 204 193 194 190 183 181 173 163 152 149 152 154 151 149 147 153 157 157 153 157 161 164 167 163 156 160 159 158 158 154 154 149 146 146
216 232 237 236 220 216 218 242 257 254 213 216 221 226 232 214 207 199 200 188 179 172 163 152 149 154 153 149 145 140 142 150 156 157 159 163 167 170 168 163 160 163 163 164 160 162 159 156 150
229 234 234 236 219 209 218 237 252 243 199 204 218 232 236 216 209 178 177 162 154 153 158 155 154 147 147 143 142 136 135 142 151 157 162 166 170 173 170 166 167 167 168 169 168 162 160 159 150
241 238 242 245 230 218 222 238 244 248 197 209 227 250 248 246 210 105 91 113 114 113 138 157 154 152 151 153 157 161 166 161 156 159 163 167 172 176 176 172 174 177 182 180 173 160 160 158 154
239 243 246 256 237 223 223 240 243 244 233 222 224 245 243 283 299 59 64 80 104 125 122 157 165 170 173 172 170 172 169 165 161 157 166 175 176 181 187 184 181 182 184 185 178 171 169 166 179
243 240 242 243 248 219 214 232 233 254 253 273 269 257 248 254 224 49 44 71 90 125 149 184 187 180 176 164 156 142 136 136 158 169 173 182 185 187 191 193 188 186 188 193 188 185 183 178 186
245 240 236 221 224 224 212 234 223 221 242 290 291 271 286 297 240 112 40 52 75 192 188 157 193 173 170 165 171 176 185 190 196 190 187 184 189 192 195 196 195 192 191 195 195 194 195 187 187
248 253 234 223 226 239 223 230 239 181 248 276 279 285 310 321 338 53 33 37 48 52 52 48 71 146 165 179 180 190 200 202 190 183 187 191 189 194 197 198 199 198 195 196 200 195 199 201 200
252 228 217 214 221 234 222 215 251 188 260 285 322 357 2 4 39 47 36 43 43 44 45 49 59 57 129 174 184 199 201 197 193 192 191 195 194 196 202 201 203 204 202 200 202 203 204 207 206
355 212 213 205 213 232 192 207 255 27 9 326 334 354 17 26 35 43 36 31 30 34 30 38 46 35 35 65 204 219 212 207 205 203 203 201 201 205 205 208 209 208 208 205 202 205 208 209 208
253 229 244 241 234 245 192 219 112 41 31 26 15 9 20 27 31 28 22 21 23 26 24 32 23 9 16 21 315 267 240 221 219 215 211 212 213 214 210 211 216 213 209 206 203 206 209 209 208
267 240 265 272 276 250 221 135 156 19 23 22 17 13 10 9 14 17 18 17 13 11 14 18 7 0 1 350 337 300 265 240 228 225 223 221 222 220 213 212 213 215 212 209 203 206 209 209 211
340 291 246 233 240 238 233 239 308 355 357 2 7 5 0 1 7 9 10 9 6 2 3 9 2 357 357 357 343 318 303 266 244 233 230 227 223 220 217 216 215 216 214 211 208 208 210 211 214
10 355 307 244 265 251 232 221 20 5 359 356 356 356 355 357 2 2 3 2 3 5 5 5 3 1 359 356 343 334 324 297 257 241 237 235 232 225 221 221 219 219 218 216 214 212 209 212 215
30 21 321 226 263 255 248 330 35 30 24 9 1 359 356 356 358 1 3 3 4 3 3 1 357 353 347 343 338 334 324 308 271 252 247 241 237 234 229 225 222 222 223 220 220 219 215 215 217
Height
1518 1519 1521 1524 1523 1518 1510 1507 1509 1511 1512 1514 1515 1515 1513 1513 1515 1519 1519 1517 1519 1522 1525 1527 1530 1533 1535 1537 1539 1541 1542 1544 1545 1546 1547 1549 1550 1551 1552 1553 1554 1554 1555 1555 1556 1557 1557 1557 1558
1518 1519 1522 1523 1517 1512 1506 1505 1508 1509 1512 1515 1516 1516 1515 1514 1516 1517 1516 1517 1519 1522 1525 1527 1530 1533 1535 1537 1539 1541 1543 1544 1546 1547 1548 1549 1550 1551 1552 1553 1555 1555 1556 1556 1557 1558 1558 1559 1559
1517 1519 1522 1518 1512 1504 1501 1505 1506 1510 1513 1514 1514 1515 1515 1515 1516 1516 1516 1517 1520 1523 1525 1527 1530 1533 1535 1537 1539 1541 1543 1545 1546 1547 1549 1550 1551 1552 1553 1554 1555 1556 1557 1557 1558 1559 1559 1560 1560
1518 1520 1520 1515 1506 1502 1501 1505 1509 1510 1513 1513 1513 1514 1515 1515 1515 1515 1515 1517 1520 1523 1525 1528 1530 1533 1535 1537 1539 1541 1543 1545 1546 1548 1549 1550 1551 1552 1554 1555 1556 1557 1557 1558 1559 1560 1560 1561 1561
1517 1518 1514 1509 1502 1501 1505 1508 1510 1509 1510 1512 1513 1511 1513 1514 1513 1514 1516 1518 1520 1523 1526 1528 1530 1533 1535 1537 1539 1541 1543 1545 1546 1548 1549 1550 1552 1553 1554 1555 1556 1557 1558 1559 1560 1560 1561 1562 1562
1516 1514 1509 1501 1497 1501 1505 1508 1510 1508 1509 1511 1512 1511 1513 1513 1513 1514 1516 1518 1521 1523 1525 1528 1530 1533 1535 1537 1539 1541 1543 1544 1546 1548 1549 1550 1551 1553 1554 1555 1556 1557 1558 1559 1560 1561 1562 1563 1563
1513 1509 1501 1496 1496 1498 1503 1507 1508 1507 1507 1510 1511 1511 1511 1512 1513 1514 1516 1518 1521 1523 1525 1528 1530 1532 1535 1536 1539 1540 1542 1544 1545 1547 1549 1550 1551 1553 1554 1555 1557 1558 1559 1560 1561 1561 1562 1563 1564
1509 1507 1500 1497 1496 1496 1502 1506 1507 1508 1507 1510 1511 1510 1511 1512 1512 1513 1516 1518 1520 1523 1525 1527 1529 1532 1534 1536 1538 1540 1542 1543 1545 1547 1548 1550 1551 1553 1554 1555 1556 1558 1559 1560 1561 1562 1563 1564 1564
1508 1506 1496 1493 1495 1496 1502 1504 1507 1507 1508 1508 1509 1510 1510 1510 1511 1513 1515 1517 1520 1522 1524 1526 1528 1530 1533 1535 1537 1539 1541 1543 1544 1546 1548 1549 1551 1552 1554 1555 1556 1558 1559 1560 1561 1562 1563 1564 1565
1505 1498 1492 1494 1496 1497 1501 1503 1505 1506 1506 1507 1508 1508 1508 1509 1510 1511 1513 1515 1518 1520 1522 1524 1527 1529 1531 1533 1536 1538 1540 1541 1543 1545 1546 1548 1550 1552 1553 1554 1556 1557 1558 1559 1561 1562 1563 1564 1565
1500 1495 1494 1498 1499 1500 1501 1503 1505 1504 1503 1505 1506 1506 1507 1508 1509 1511 1513 1515 1516 1519 1521 1523 1525 1528 1530 1532 1534 1536 1538 1540 1542 1543 1545 1547 1549 1550 1552 1554 1555 1556 1558 1559 1560 1561 1563 1564 1565
1498 1496 1497 1498 1500 1501 1501 1503 1504 1504 1504 1505 1505 1505 1506 1506 1508 1510 1512 1514 1516 1517 1520 1522 1524 1526 1528 1530 1532 1534 1537 1538 1540 1542 1544 1546 1547 1549 1551 1552 1554 1555 1557 1558 1559 1561 1562 1563 1564
1496 1496 1498 1499 1500 1501 1501 1502 1502 1502 1504 1504 1504 1504 1504 1505 1507 1509 1511 1512 1514 1516 1518 1520 1522 1524 1527 1529 1531 1533 1535 1537 1539 1540 1542 1544 1546 1547 1549 1551 1552 1554 1555 1557 1558 1560 1561 1562 1564
1495 1496 1497 1498 1498 1499 1500 1500 1501 1501 1502 1502 1502 1503 1503 1504 1505 1507 1508 1510 1512 1514 1516 1518 1520 1523 1525 1527 1529 1531 1533 1535 1537 1539 1540 1542 1544 1546 1547 1549 1551 1552 1554 1555 1557 1558 1560 1561 1563
1495 1495 1494 1494 1496 1497 1499 1498 1499 1500 1501 1501 1501 1502 1502 1503 1504 1505 1506 1508 1510 1512 1514 1516 1519 1521 1523 1525 1528 1530 1532 1533 1535 1537 1539 1541 1542 1544 1546 1547 1549 1551 1552 1554 1555 1557 1559 1560 1562
1493 1491 1489 1491 1493 1495 1498 1492 1497 1499 1499 1499 1500 1500 1501 1501 1502 1503 1505 1506 1508 1510 1512 1515 1517 1519 1521 1523 1526 1528 1530 1532 1533 1535 1537 1539 1541 1542 1544 1545 1547 1549 1550 1552 1554 1555 1557 1558 1560
1489 1486 1485 1488 1491 1493 1494 1492 1496 1497 1497 1497 1498 1498 1499 1499 1500 1501 1503 1504 1506 1508 1510 1512 1515 1517 1519 1521 1523 1526 1528 1530 1532 1533 1535 1537 1539 1540 1542 1543 1545 1547 1548 1550 1552 1553 1555 1557 1558
1484 1483 1484 1485 1488 1491 1492 1493 1495 1496 1496 1496 1497 1497 1497 1497 1498 1499 1501 1502 1504 1506 1508 1510 1513 1515 1517 1519 1521 1523 1525 1527 1529 1531 1533 1535 1537 1538 1540 1541 1543 1544 1546 1547 1549 1551 1553 1555 1556
1484 1483 1483 1485 1488 1491 1490 1491 1493 1495 1495 1495 1495 1496 1496 1496 1498 1498 1499 1500 1502 1504 1506 1508 1510 1512 1514 1516 1518 1520 1522 1525 1527 1529 1531 1532 1534 1536 1538 1539 1540 1542 1543 1545 1547 1549 1551 1552 1554
1485 1483 1482 1486 1488 1489 1488 1489 1492 1494 1494 1494 1495 1495 1495 1495 1496 1496 1497 1498 1500 1502 1504 1506 1508 1510 1512 1514 1516 1518 1520 1522 1524 1526 1528 1530 1532 1533 1535 1537 1538 1539 1541 1542 1544 1546 1548 1550 1552
1482 1481 1481 1485 1488 1488 1487 1487 1490 1491 1492 1493 1494 1494 1494 1494 1494 1495 1495 1496 1498 1499 1501 1503 1505 1508 1510 1512 1514 1516 1518 1519 1522 1523 1525 1527 1529 1531 1532 1534 1535 1537 1538 1540 1541 1543 1545 1547 1549
1481 1482 1484 1485 1485 1482 1483 1481 1485 1488 1490 1491 1492 1493 1493 1493 1494 1494 1494 1495 1496 1498 1499 1501 1503 1505 1507 1509 1511 1513 1514 1516 1518 1520 1522 1524 1526 1528 1529 1531 1533 1534 1535 1537 1538 1540 1542 1544 1545
1483 1484 1484 1483 1482 1482 1482 1482 1480 1486 1489 1490 1492 1492 1492 1493 1493 1493 1494 1494 1495 1496 1498 1499 1501 1503 1505 1506 1508 1510 1512 1514 1516 1517 1519 1521 1523 1524 1526 1528 1529 1531 1532 1534 1535 1537 1539 1541 1542
1485 1484 1483 1482 1481 1482 1481 1481 1480 1486 1489 1491 1492 1492 1492 1493 1493 1493 1493 1494 1494 1495 1496 1497 1499 1500 1502 1504 1505 1507 1509 1510 1512 1514 1516 1517 1519 1521 1523 1524 1526 1527 1529 1530 1532 1533 1535 1537 1539
1485 1482 1479 1477 1478 1476 1481 1482 1487 1492 1493 1494 1493 1492 1492 1493 1492 1492 1492 1492 1493 1493 1494 1495 1497 1498 1499 1501 1502 1504 1506 1507 1509 1510 1512 1514 1515 1517 1519 1520 1522 1524 1525 1527 1528 1530 1532 1533 1535
1488 1485 1482 1478 1474 1474 1481 1482 1491 1496 1497 1496 1495 1494 1493 1493 1493 1492 1492 1492 1492 1493 1493 1494 1495 1496 1497 1498 1499 1501 1502 1504 1505 1507 1509 1510 1511 1513 1515 1517 1518 1520 1521 1523 1525 1526 1527 1529 1531
1490 1488 1489 1487 1483 1482 1481 1489 1493 1496 1496 1496 1495 1494 1494 1493 1493 1492 1492 1492 1492 1492 1492 1493 1494 1494 1495 1495 1496 1498 1499 1501 1502 1504 1505 1506 1508 1509 1511 1513 1514 1516 1517 1519 1521 1522 1524 1525 1527
1496 1493 1490 1487 1483 1479 1482 1486 1489 1496 1497 1497 1497 1496 1495 1494 1493 1493 1492 1492 1492 1492 1492 1492 1493 1493 1493 1493 1494 1495 1496 1498 1499 1500 1501 1503 1504 1506 1507 1509 1510 1511 1513 1515 1517 1518 1520 1521 1522
1498 1497 1494 1490 1487 1481 1482 1490 1498 1499 1500 1500 1499 1498 1496 1495 1494 1493 1493 1492 1492 1491 1491 1491 1491 1491 1491 1492 1492 1493 1494 1495 1496 1497 1498 1499 1501 1502 1503 1505 1506 1507 1509 1510 1512 1513 1515 1517 1518
1503 1501 1498 1495 1494 1489 1486 1498 1503 1502 1503 1502 1501 1499 1498 1496 1495 1494 1493 1492 1491 1491 1490 1490 1490 1490 1490 1490 1490 1491 1491 1492 1493 1494 1495 1496 1497 1498 1500 1501 1502 1503 1505 1506 1507 1509 1510 1512 1513